Tracking 19242 objects as of 20-Sep-2018
HD Live streaming from Space Station
objects crossing your sky now

FENGYUN 1C DEB

Track FENGYUN 1C DEB now!
10-day predictions


NORAD ID: 37474
Int'l Code: 1999-025EJU
Perigee: 607.2 km
Apogee: 920.4 km
Inclination: 99.1 °
Period: 100.0 minutes
Semi major axis: 7134 km
RCS: 0.0095 m2 (small)
Launch date: May 10, 1999
Source: People's Republic of China (PRC)
Launch site: Taiyaun Space Center, China (TSC)

Note: This is SATELLITE DEBRIS
aabbcc
Your satellite tracking list
Your tracking list is empty




NASA's NSSDC Master Catalog

Two Line Element Set (TLE):
1 37474U 99025EJU 18259.62602359 +.00000646 +00000-0 +16635-3 0  9998
2 37474 099.1379 202.2081 0219481 090.7754 271.8586 14.40550170448838
Source of the keplerian elements: AFSPC